Tracking 33464 objects as of 13-Mar-2026
HD Live streaming from Space Station
objects crossing your sky now

SL-12 R/B(2)

Track SL-12 R/B(2) now!


NORAD ID: 26397
Int'l Code: 2000-036D
Perigee: 35,747.2 km
Apogee: 35,883.9 km
Inclination: 13.9 °
Period: 1,437.2 minutes
Semi major axis: 42186 km
RCS: 2.5119 m2 (large)
Launch date: July 4, 2000
Source: Commonwealth of Independent States (former USSR) (CIS)
Launch site: TYURATAM MISSILE AND SPACE COMPLEX (TTMTR)

Note: This is a ROCKET BODY
Your satellite tracking list
Your tracking list is empty




NASA's NSSDC Master Catalog

Two Line Element Set (TLE):
1 26397U 00036D   26072.00200091  .00000046  00000-0  00000-0 0  9995
2 26397  13.9099   8.1019 0016194  71.2512 103.7779  1.00194059 46360
Source of the keplerian elements: AFSPC